Newark, NJ

6:55 PM EDT on May 23, 2017 (GMT -0400)
Newark International

Weather History for KEWR - July, 2013

Change the Weather History Date:

Wednesday, July 24, 2013

  Actual Average Record
Temperature  
Mean Temperature 76 °F 78 °F  
Max Temperature 84 °F 86 °F 99 °F (2010)
Min Temperature 68 °F 69 °F 55 °F (1947)
Degree Days  
Heating Degree Days 0 0  
Month to date heating degree days 0 0  
Since 1 June heating degree days 8 17  
Since 1 July heating degree days 0 0  
Cooling Degree Days 11 13  
Month to date cooling degree days 433 300  
Year to date cooling degree days 798 615  
Since 1 June cooling degree days 698 539  
Growing Degree Days 28 (Base 50)    
Moisture  
Dew Point 63 °F    
Average Humidity 66    
Maximum Humidity 87    
Minimum Humidity 45    
Precipitation  
Precipitation 0.00 in 0.16 in 3.54 in (1997)
Month to date precipitation 3.43 3.58  
Year to date precipitation 28.42 26.49  
Snow  
Snow 0.00 in 0.00 in 0.00 in (2002)
Month to date snowfall 0.0 0.0  
Since 1 July snowfall 0.0 0.0  
Snow Depth 0.00 in    
Sea Level Pressure  
Sea Level Pressure 29.74 in    
Wind  
Wind Speed 11 mph (NW)    
Max Wind Speed 22 mph    
Max Gust Speed 26 mph    
Visibility 10 miles    
Events      
T = Trace of Precipitation, MM = Missing Value Source: NWS Daily Summary

Daily Weather History Graph

Daily Weather History Graph

Search for Another Location

Airport or City:

Trip Planner

Search our weather history database for the weather conditions in past years. The results will help you decide how hot, cold, wet, or windy it might be!

Date:

Astronomy

Jul. 24, 2013 Rise Set
Actual Time 5:46 AM EDT 8:19 PM EDT
Civil Twilight 5:14 AM EDT 8:51 PM EDT
Nautical Twilight 4:35 AM EDT 9:30 PM EDT
Astronomical Twilight 3:51 AM EDT 10:13 PM EDT
Moon 9:22 PM EDT (7/24) 8:04 AM EDT (7/24)
Length of Visible Light 15h 36m
Length of Day
14h 33m
Waning Gibbous, 95% of the Moon is Illuminated
Jul 24
Waning Gibbous
Jul 29
Last Quarter
Aug 6
New
Aug 14
First Quarter
Aug 20
Full

Hourly Weather History & Observations

Time (EDT) Temp. Heat Index Dew Point Humidity Pressure Visibility Wind Dir Wind Speed Gust Speed Precip Events Conditions
12:51 AM 78.1 °F - 69.1 °F 74% 29.63 in 10.0 mi West 9.2 mph - N/A   Partly Cloudy
1:51 AM 77.0 °F - 69.1 °F 76% 29.63 in 10.0 mi West 5.8 mph - N/A   Partly Cloudy
2:51 AM 75.9 °F - 69.1 °F 79% 29.63 in 10.0 mi WSW 5.8 mph - N/A   Partly Cloudy
3:51 AM 73.9 °F - 69.1 °F 85% 29.62 in 10.0 mi SW 3.5 mph - N/A   Partly Cloudy
4:51 AM 73.9 °F - 69.1 °F 85% 29.62 in 10.0 mi Calm Calm - N/A   Clear
5:02 AM 73.4 °F - 69.8 °F 88% 29.62 in 10.0 mi SW 3.5 mph - N/A   Mostly Cloudy
5:51 AM 73.9 °F - 68.0 °F 82% 29.64 in 10.0 mi West 6.9 mph - N/A   Mostly Cloudy
6:51 AM 73.9 °F - 66.9 °F 79% 29.66 in 10.0 mi West 5.8 mph - N/A   Mostly Cloudy
7:51 AM 78.1 °F - 66.0 °F 66% 29.68 in 10.0 mi NW 11.5 mph - N/A   Mostly Cloudy
8:51 AM 80.1 °F 81.7 °F 64.0 °F 58% 29.70 in 10.0 mi NW 12.7 mph 21.9 mph N/A   Mostly Cloudy
9:51 AM 82.0 °F 83.8 °F 64.9 °F 56% 29.72 in 10.0 mi NW 9.2 mph - N/A   Mostly Cloudy
10:51 AM 82.9 °F 84.6 °F 64.9 °F 54% 29.73 in 10.0 mi NW 10.4 mph - N/A   Mostly Cloudy
11:51 AM 81.0 °F 82.7 °F 64.9 °F 58% 29.75 in 10.0 mi NNW 17.3 mph - N/A   Mostly Cloudy
12:51 PM 81.0 °F 82.5 °F 64.0 °F 56% 29.77 in 10.0 mi NW 13.8 mph 24.2 mph N/A   Mostly Cloudy
1:51 PM 82.9 °F 84.0 °F 63.0 °F 51% 29.76 in 10.0 mi WNW 13.8 mph 24.2 mph N/A   Mostly Cloudy
2:51 PM 82.9 °F 83.7 °F 62.1 °F 49% 29.79 in 10.0 mi NW 12.7 mph - N/A   Mostly Cloudy
3:51 PM 82.0 °F 82.7 °F 61.0 °F 49% 29.78 in 10.0 mi WNW 10.4 mph 18.4 mph N/A   Mostly Cloudy
4:51 PM 80.1 °F 80.9 °F 60.1 °F 50% 29.78 in 10.0 mi NNW 11.5 mph - N/A   Mostly Cloudy
5:51 PM 80.1 °F 80.7 °F 59.0 °F 48% 29.79 in 10.0 mi North 8.1 mph 17.3 mph N/A   Mostly Cloudy
6:51 PM 81.0 °F 81.0 °F 57.0 °F 44% 29.81 in 10.0 mi NNW 11.5 mph - N/A   Mostly Cloudy
7:51 PM 78.1 °F - 55.0 °F 45% 29.84 in 10.0 mi NW 12.7 mph 21.9 mph N/A   Mostly Cloudy
8:51 PM 75.9 °F - 55.0 °F 48% 29.86 in 10.0 mi NW 15.0 mph - N/A   Scattered Clouds
9:51 PM 73.0 °F - 55.0 °F 53% 29.90 in 10.0 mi NNW 11.5 mph 20.7 mph N/A   Mostly Cloudy
10:51 PM 72.0 °F - 54.0 °F 53% 29.92 in 10.0 mi NNW 11.5 mph 19.6 mph N/A   Mostly Cloudy
11:51 PM 70.0 °F - 51.1 °F 51% 29.93 in 10.0 mi North 18.4 mph 26.5 mph N/A   Mostly Cloudy